This demonstration page uses our WeatherBlox Daily Observations layout. Learn more.

Left ArrowRight Arrow

Hourly Observations for December 17, 2020

Temp ( °F °C ) Dew Point ( °F °C ) Humidity (%) Winds ( mph kmh ) Pressure ( in mb ) Visibility ( mi km ) Precip ( " mm )
12:15 am 00:15 Clear 31 -0.7 24 -4.5 76 76 WNW 8 13 30.12 1020 10 16.0934 0 0
12:35 am 00:35 Clear 29 -1.8 23 -4.9 80 80 WNW 5 7 30.13 1020 10 16.0934 0 0
12:55 am 00:55 Clear 28 -2.1 22 -5.3 79 79 WNW 5 7 30.14 1020 10 16.0934 0 0
1:15 am 01:15 Clear 27 -2.7 22 -5.7 80 80 WNW 7 11 30.14 1021 10 16.0934 0 0
1:35 am 01:35 Clear 27 -3 21 -6.1 79 79 WNW 6 9 30.13 1020 10 16.0934 0 0
1:55 am 01:55 Clear 27 -3 21 -6 80 80 WNW 8 13 30.13 1020 10 16.0934 0 0
2:15 am 02:15 Clear 28 -2.1 22 -5.5 78 78 NW 8 13 30.13 1020 10 16.0934 0 0
2:35 am 02:35 Clear 29 -1.5 23 -5.2 76 76 NW 8 13 30.12 1020 10 16.0934 0 0
2:55 am 02:55 Clear 29 -1.4 23 -4.9 77 77 NW 8 13 30.13 1020 10 16.0934 0 0
3:15 am 03:15 Clear 31 -0.7 24 -4.6 75 75 WNW 9 15 30.12 1020 10 16.0934 0 0
3:35 am 03:35 Clear 29 -1.5 23 -5.1 77 77 WNW 7 11 30.13 1020 10 16.0934 0 0
3:55 am 03:55 Clear 29 -1.7 22 -5.3 77 77 WNW 9 15 30.13 1020 10 16.0934 0 0
4:15 am 04:15 Clear 29 -1.6 22 -5.3 76 76 WNW 7 11 30.13 1020 10 16.0934 0 0
4:35 am 04:35 Clear 27 -2.9 20 -6.4 77 77 W 8 13 30.14 1021 10 16.0934 0 0
4:55 am 04:55 Clear 26 -3.5 20 -6.5 80 80 W 7 11 30.15 1021 10 16.0934 0 0
5:15 am 05:15 Clear 27 -2.8 21 -6.1 78 78 WNW 6 9 30.14 1021 10 16.0934 0 0
5:35 am 05:35 Clear 26 -3.6 20 -6.6 80 80 W 6 9 30.15 1021 10 16.0934 0 0
5:55 am 05:55 Clear 27 -3 20 -6.5 77 77 W 8 13 30.14 1021 10 16.0934 0 0
6:15 am 06:15 Clear 25 -3.9 20 -6.7 81 81 W 9 15 30.15 1021 10 16.0934 0 0
6:35 am 06:35 Clear 25 -4 20 -6.9 80 80 W 8 13 30.15 1021 10 16.0934 0 0
6:55 am 06:55 Clear 24 -4.4 20 -6.9 83 83 W 6 9 30.17 1022 10 16.0934 0 0
7:15 am 07:15 Clear 22 -5.5 17 -8.2 82 82 WSW 3 6 30.18 1022 10 16.0934 0 0
7:35 am 07:35 Clear 20 -6.4 17 -8.2 87 87 WSW 5 7 30.2 1023 10 16.0934 0 0
7:55 am 07:55 Clear 20 -6.6 17 -8.4 87 87 WSW 7 11 30.2 1023 10 16.0934 0 0
8:15 am 08:15 Sunny 22 -5.6 18 -7.6 86 86 WSW 7 11 30.19 1022 10 16.0934 0 0
8:35 am 08:35 Sunny 24 -4.7 19 -7.2 83 83 WSW 8 13 30.19 1022 10 16.0934 0 0
8:55 am 08:55 Sunny 25 -3.8 19 -7 79 79 WSW 8 13 30.18 1022 10 16.0934 0 0
9:15 am 09:15 Sunny 26 -3.5 20 -6.9 78 78 WSW 8 13 30.18 1022 10 16.0934 0 0
9:35 am 09:35 Sunny 27 -2.7 20 -6.6 75 75 W 7 11 30.18 1022 10 16.0934 0 0
9:55 am 09:55 Sunny 28 -2.2 21 -6.2 74 74 WSW 5 7 30.17 1022 10 16.0934 0 0
10:15 am 10:15 Sunny 30 -1.2 21 -6 70 70 WSW 7 11 30.16 1021 10 16.0934 0 0
10:35 am 10:35 Sunny 31 -0.6 22 -5.6 69 69 W 6 9 30.15 1021 10 16.0934 0 0
10:55 am 10:55 Sunny 32 0 23 -5.1 69 69 W 5 7 30.14 1020 10 16.0934 0 0
11:15 am 11:15 Sunny 32 0 23 -5 69 69 W 6 9 30.15 1021 10 16.0934 0 0
11:35 am 11:35 Sunny 32 0 23 -5 69 69 W 5 7 30.14 1020 10 16.0934 0 0
11:55 am 11:55 Sunny 33 0.6 24 -4.7 68 68 W 5 7 30.11 1020 10 16.0934 0 0
12:15 pm 12:15 Sunny 34 1.3 24 -4.3 67 67 Calm 30.1 1019 10 16.0934 0 0
12:35 pm 12:35 Sunny 35 1.5 25 -4 67 67 SW 6 9 30.09 1019 10 16.0934 0 0
12:55 pm 12:55 Sunny 34 1.3 25 -3.7 70 70 SW 3 6 30.08 1019 10 16.0934 0 0
1:15 pm 13:15 Sunny 36 2.1 26 -3.5 67 67 S 3 6 30.07 1018 10 16.0934 0 0
1:35 pm 13:35 Sunny 35 1.9 25 -3.7 67 67 SW 6 9 30.07 1018 10 16.0934 0 0
1:55 pm 13:55 Sunny 35 1.7 25 -3.7 68 68 SSW 6 9 30.06 1018 10 16.0934 0 0
2:15 pm 14:15 Sunny 36 2.2 26 -3.5 66 66 SSW 7 11 30.05 1018 10 16.0934 0 0
2:35 pm 14:35 Sunny 36 2.4 26 -3.4 66 66 SSW 7 11 30.04 1017 10 16.0934 0 0
2:55 pm 14:55 Sunny 35 1.8 27 -2.9 71 71 S 5 7 30.04 1017 10 16.0934 0 0
3:15 pm 15:15 Sunny 36 2 27 -3 70 70 S 5 7 30.04 1017 10 16.0934 0 0
3:35 pm 15:35 Sunny 35 1.8 27 -2.9 71 71 S 3 6 30.04 1017 10 16.0934 0 0
3:55 pm 15:55 Sunny 35 1.7 26 -3.3 70 70 SSE 3 6 30.04 1017 10 16.0934 0 0
4:15 pm 16:15 Sunny 33 0.3 26 -3.6 75 75 SSE 6 9 30.03 1017 10 16.0934 0 0
4:35 pm 16:35 Sunny 33 0.3 26 -3.6 75 75 SSE 6 9 30.03 1017 10 16.0934 0 0
4:55 pm 16:55 Sunny 31 -0.3 25 -4 76 76 SE 8 13 30.03 1017 10 16.0934 0 0
5:15 pm 17:15 Clear 31 -0.3 25 -3.7 78 78 SSE 5 7 30.02 1017 10 16.0934 0 0
5:35 pm 17:35 Clear 30 -1 25 -4 80 80 SSE 5 7 30.02 1017 10 16.0934 0 0
5:55 pm 17:55 Clear 32 0 26 -3.1 80 80 SSE 6 9 30.01 1016 10 16.0934 0 0
6:15 pm 18:15 Clear 35 1.6 28 -2.5 74 74 SSE 10 17 29.99 1016 10 16.0934 0 0
6:35 pm 18:35 Clear 36 2 27 -2.8 71 71 SSE 8 13 29.99 1015 10 16.0934 0 0
6:55 pm 18:55 Clear 35 1.4 26 -3.2 72 72 SSE 9 15 29.99 1016 10 16.0934 0 0
7:15 pm 19:15 Clear 34 1.3 26 -3.6 70 70 SSE 7 11 29.98 1015 10 16.0934 0 0
7:35 pm 19:35 Clear 34 0.9 26 -3.6 72 72 SSE 10 17 29.99 1015 10 16.0934 0 0
7:55 pm 19:55 Clear 34 1.1 26 -3.5 72 72 SSE 9 15 29.98 1015 10 16.0934 0 0
8:15 pm 20:15 Clear 33 0.7 26 -3.6 73 73 SSE 9 15 29.98 1015 10 16.0934 0 0
8:35 pm 20:35 Clear 34 1.1 26 -3.2 73 73 SSE 13 20 29.97 1015 10 16.0934 0 0
8:55 pm 20:55 Clear 34 1 26 -3.2 74 74 SSE 13 20 29.97 1015 10 16.0934 0 0
9:15 pm 21:15 Clear 35 1.8 28 -2.5 73 73 S 15 24 29.95 1014 10 16.0934 0 0
9:35 pm 21:35 Clear 36 2.3 28 -2.5 71 71 S 12 19 29.94 1014 10 16.0934 0 0
9:55 pm 21:55 Clear 36 2.1 28 -2.4 72 72 S 15 24 29.93 1014 10 16.0934 0 0
10:15 pm 22:15 Clear 35 1.9 28 -2.5 73 73 S 14 22 29.95 1014 10 16.0934 0 0
10:35 pm 22:35 Clear 35 1.9 27 -2.7 72 72 S 16 26 29.94 1014 10 16.0934 0 0
10:55 pm 22:55 Clear 35 1.8 27 -2.7 72 72 S 14 22 29.93 1013 10 16.0934 0 0
11:15 pm 23:15 Clear 35 1.7 27 -2.7 73 73 SSE 13 20 29.92 1013 10 16.0934 0 0
11:35 pm 23:35 Clear 34 1.2 27 -2.6 76 76 SSE 10 17 29.91 1013 10 16.0934 0 0
11:55 pm 23:55 Clear 35 1.8 28 -2.5 73 73 SSE 15 24 29.9 1012 10 16.0934 0 0

Powered by AerisWeather